Regional Weather Roundup
Issued by NWS Jackson, KY

Home | Current Version | Previous Version | Graphics & Text | Print | Product List | Glossary On
Versions: 1 2 3 4 5 6 7 8 9 10 11 12 13 14 15 16 17 18 19 20 21 22 23 24 25 26 27
000
ASUS43 KJKL 241410
RWRJKL

EAST KENTUCKY HOURLY WEATHER ROUNDUP
NATIONAL WEATHER SERVICE JACKSON KY
1000 AM EDT SUN JUL 24 2016

NOTE: "FAIR" INDICATES FEW OR NO CLOUDS BELOW 12,000 FEET WITH
NO SIGNIFICANT WEATHER AND/OR OBSTRUCTIONS TO VISIBILITY.

* THESE REPORTS ARE NOT UNDER NWS QUALITY CONTROL AND MAY NOT
  REPORT WEATHER SUCH AS PRECIPITATION AND FOG.

KYZ079-080-083-085-087-088-110-112-115-119-120-241500
...EASTERN KENTUCKY...

CITY           SKY/WX    TMP DP  RH WIND       PRES   REMARKS
JACKSON        CLOUDY    78  72  81 CALM      30.07S
LONDON         SUNNY     81  70  69 S7        30.07S
SOMERSET*      SUNNY     79  70  73 CALM      30.08S
MONTICELLO*    SUNNY    N/A N/A N/A NW9       30.08S
WILLIAMSBURG*  SUNNY     81  75  83 CALM      30.08S
MIDDLESBORO*   SUNNY     79  73  81 E3        30.09S
HARLAN APT*      N/A     77  70  78 CALM      30.10F
PIKE CO APT*     N/A     76  72  87 S3        30.08S
MOREHEAD APT*  MOSUNNY   82  75  78 S3        30.06S
ASHLAND*       MOSUNNY   82  77  83 CALM      30.01R HX  91
$$

KYZ035-036-041-042-044-050-067-078-099-241500
...CENTRAL KENTUCKY...

CITY           SKY/WX    TMP DP  RH WIND       PRES   REMARKS
MT STERLING*   SUNNY     82  75  78 SW3       30.06F
FLEMING/MASON* MOSUNNY   84  76  76 SW5       30.05S HX  92
DANVILLE*      SUNNY     81  73  78 S7        30.06S
RICHMOND*      SUNNY     81  72  74 W7        30.05S
LEXINGTON      SUNNY     83  74  74 SW3       30.05R
FRANKFORT      SUNNY     83  74  74 CALM      30.03R
LOUISVILLE     PTSUNNY   85  74  69 CALM      30.01R HX  92
LEBANON*         N/A     82  73  74 S6        30.05R
GLASGOW*       SUNNY     80  73  79 SW5       30.04S
BOWLING GREEN  SUNNY     82  73  74 SW5       30.03S
$$

KYZ091>093-OHZ055-061-077-WVZ005-015-034-035-042-241500
...SOUTHERN OHIO/WEST VIRGINIA...

CITY           SKY/WX    TMP DP  RH WIND       PRES   REMARKS
COVINGTON      PTSUNNY   85  75  72 SW6       30.03R HX  93
COLUMBUS       PTSUNNY   83  74  74 S7        30.01R
DAYTON         MOSUNNY   82  73  74 SW3       30.04R
WILMINGTON     SUNNY     86  75  69 SW6       30.03R HX  95
HUNTINGTON       N/A     82  72  71 SW5       30.03S
CHARLESTON       N/A     84  73  69 CALM      30.04R HX  90
PINEVILLE*       N/A     82  69  65 MISG      30.15R
BECKLEY          N/A     82  71  69 W6        30.14S
BLUEFIELD        N/A     78  69  73 VRB3      30.17S
LOGAN CO APT*    N/A     79  73  83 S5        30.07S
$$

VAZ002-007-008-TNZ017-027-036-066-071-241500
...SOUTHWEST VIRGINIA/EAST TENNESSEE...

CITY           SKY/WX    TMP DP  RH WIND       PRES   REMARKS
WISE*            N/A     79  63  57 SW6       30.17S
JONESVILLE*      N/A     77  70  78 CALM      30.13S
ABINGDON*        N/A     80  70  72 CALM      30.14S
BRISTOL        PTSUNNY   80  70  71 CALM      30.11S
MORRISTOWN*    SUNNY     81  70  69 CALM      30.09S
SEVIERVILLE*   SUNNY     81  66  61 CALM      30.07F
KNOXVILLE      CLOUDY    81  70  69 CALM      30.07F
OAK RIDGE      CLOUDY    78  71  79 W3        30.10S
CROSSVILLE     CLOUDY    78  70  76 S5        30.12S
NASHVILLE      MOSUNNY   83  72  69 S7        30.04S
$$

...KEY TO REMARKS...
VSB - VISIBILITY IN MILES
WCI - WIND CHILL INDEX
HX  - HEAT INDEX

$$




USA.gov is the U.S. government's official web portal to all federal, state and local government web resources and services.